Time,TemperatureF,DewpointF,PressureIn,WindDirection,WindDirectionDegrees,WindSpeedMPH,WindSpeedGustMPH,Humidity,HourlyPrecipIn,Conditions,Clouds,dailyrainin,SoftwareType,DateUTC
2013-08-06 00:00:00,56.5,53.6,29.89,West,264,1.0,4.0,90,0.00,,,0.00,WeatherCatV1.21B27,2013-08-05 23:00:00,
2013-08-06 00:05:00,56.5,53.6,29.89,West,277,2.0,3.0,90,0.00,,,0.00,WeatherCatV1.21B27,2013-08-05 23:05:00,
2013-08-06 00:11:00,56.4,53.5,29.89,West,270,1.0,2.0,90,0.00,,,0.00,WeatherCatV1.21B27,2013-08-05 23:11:00,
2013-08-06 00:16:00,56.3,53.4,29.89,WSW,248,1.0,3.0,90,0.00,,,0.00,WeatherCatV1.21B27,2013-08-05 23:16:00,
2013-08-06 00:21:00,56.2,53.6,29.89,West,278,1.0,3.0,91,0.00,,,0.00,WeatherCatV1.21B27,2013-08-05 23:21:00,
2013-08-06 00:26:00,56.2,53.6,29.89,West,280,3.0,5.0,91,0.00,,,0.00,WeatherCatV1.21B27,2013-08-05 23:26:00,
2013-08-06 00:31:00,56.2,53.6,29.89,WNW,290,1.0,3.0,91,0.00,,,0.00,WeatherCatV1.21B27,2013-08-05 23:31:00,
2013-08-06 00:36:00,56.1,53.5,29.89,West,281,2.0,4.0,91,0.00,,,0.00,WeatherCatV1.21B27,2013-08-05 23:36:00,
2013-08-06 00:41:00,56.0,53.4,29.89,WNW,285,1.0,3.0,91,0.00,,,0.00,WeatherCatV1.21B27,2013-08-05 23:41:00,
2013-08-06 00:46:00,56.0,53.4,29.89,West,271,2.0,3.0,91,0.00,,,0.00,WeatherCatV1.21B27,2013-08-05 23:46:00,
2013-08-06 00:51:00,56.0,53.4,29.89,WNW,283,2.0,2.0,91,0.00,,,0.00,WeatherCatV1.21B27,2013-08-05 23:51:00,
2013-08-06 00:57:00,55.8,53.2,29.89,West,277,0.0,3.0,91,0.00,,,0.00,WeatherCatV1.21B27,2013-08-05 23:57:00,
2013-08-06 01:01:00,55.5,52.9,29.89,West,276,0.0,2.0,91,0.00,,,0.00,WeatherCatV1.21B27,2013-08-06 00:01:00,
2013-08-06 01:06:00,55.3,52.7,29.88,WNW,288,1.0,1.0,91,0.00,,,0.00,WeatherCatV1.21B27,2013-08-06 00:06:00,
2013-08-06 01:11:00,55.2,52.9,29.89,West,268,1.0,2.0,92,0.00,,,0.00,WeatherCatV1.21B27,2013-08-06 00:11:00,
2013-08-06 01:17:00,55.2,52.9,29.89,WSW,255,1.0,1.0,92,0.00,,,0.00,WeatherCatV1.21B27,2013-08-06 00:17:00,
2013-08-06 01:22:00,55.3,53.3,29.89,WSW,245,2.0,3.0,93,0.00,,,0.00,WeatherCatV1.21B27,2013-08-06 00:22:00,
2013-08-06 01:27:00,55.3,53.0,29.88,West,268,1.0,3.0,92,0.00,,,0.00,WeatherCatV1.21B27,2013-08-06 00:27:00,
2013-08-06 01:32:00,55.4,53.1,29.88,West,276,3.0,3.0,92,0.00,,,0.00,WeatherCatV1.21B27,2013-08-06 00:32:00,
2013-08-06 01:37:00,55.5,53.2,29.88,WNW,287,3.0,4.0,92,0.00,,,0.00,WeatherCatV1.21B27,2013-08-06 00:37:00,
2013-08-06 01:42:00,55.5,53.2,29.88,West,280,2.0,5.0,92,0.00,,,0.00,WeatherCatV1.21B27,2013-08-06 00:42:00,
2013-08-06 01:47:00,55.6,53.3,29.88,NW,314,5.0,6.0,92,0.00,,,0.00,WeatherCatV1.21B27,2013-08-06 00:47:00,
2013-08-06 01:52:00,55.8,53.2,29.88,WNW,287,5.0,5.0,91,0.00,,,0.00,WeatherCatV1.21B27,2013-08-06 00:52:00,
2013-08-06 01:57:00,55.8,52.9,29.88,West,281,5.0,6.0,90,0.00,,,0.00,WeatherCatV1.21B27,2013-08-06 00:57:00,
2013-08-06 02:02:00,55.9,53.0,29.88,West,276,5.0,6.0,90,0.00,,,0.00,WeatherCatV1.21B27,2013-08-06 01:02:00,
2013-08-06 02:07:00,55.7,52.8,29.88,West,274,1.0,4.0,90,0.00,,,0.00,WeatherCatV1.21B27,2013-08-06 01:07:00,
2013-08-06 02:12:00,55.7,52.8,29.88,West,262,1.0,2.0,90,0.00,,,0.00,WeatherCatV1.21B27,2013-08-06 01:12:00,
2013-08-06 02:17:00,55.5,52.6,29.88,West,277,0.0,2.0,90,0.00,,,0.00,WeatherCatV1.21B27,2013-08-06 01:17:00,
2013-08-06 02:22:00,55.4,52.5,29.88,West,276,1.0,2.0,90,0.00,,,0.00,WeatherCatV1.21B27,2013-08-06 01:22:00,
2013-08-06 02:27:00,55.4,52.5,29.88,WSW,249,2.0,3.0,90,0.00,,,0.00,WeatherCatV1.21B27,2013-08-06 01:27:00,
2013-08-06 02:32:00,55.6,52.4,29.88,SSW,212,2.0,3.0,89,0.00,,,0.00,WeatherCatV1.21B27,2013-08-06 01:32:00,
2013-08-06 02:37:00,55.6,52.4,29.88,SW,236,1.0,1.0,89,0.00,,,0.00,WeatherCatV1.21B27,2013-08-06 01:37:00,
2013-08-06 02:42:00,55.7,52.5,29.88,West,260,2.0,3.0,89,0.00,,,0.00,WeatherCatV1.21B27,2013-08-06 01:42:00,
2013-08-06 02:47:00,55.8,52.6,29.87,West,276,0.0,1.0,89,0.00,,,0.00,WeatherCatV1.21B27,2013-08-06 01:47:00,
2013-08-06 02:52:00,55.7,52.5,29.87,WSW,246,2.0,2.0,89,0.00,,,0.00,WeatherCatV1.21B27,2013-08-06 01:52:00,
2013-08-06 02:57:00,55.7,52.8,29.87,WSW,246,1.0,2.0,90,0.00,,,0.00,WeatherCatV1.21B27,2013-08-06 01:57:00,
2013-08-06 03:02:00,55.6,52.7,29.87,WSW,242,1.0,2.0,90,0.00,,,0.00,WeatherCatV1.21B27,2013-08-06 02:02:00,
2013-08-06 03:07:00,55.7,53.1,29.87,West,276,2.0,3.0,91,0.00,,,0.00,WeatherCatV1.21B27,2013-08-06 02:07:00,
2013-08-06 03:12:00,55.9,53.3,29.87,WNW,289,1.0,2.0,91,0.00,,,0.00,WeatherCatV1.21B27,2013-08-06 02:12:00,
2013-08-06 03:17:00,56.0,53.4,29.87,WSW,253,4.0,7.0,91,0.00,,,0.00,WeatherCatV1.21B27,2013-08-06 02:17:00,
2013-08-06 03:22:00,55.9,53.3,29.87,SW,235,3.0,6.0,91,0.00,,,0.00,WeatherCatV1.21B27,2013-08-06 02:22:00,
2013-08-06 03:27:00,55.6,53.3,29.87,WSW,245,3.0,5.0,92,0.00,,,0.00,WeatherCatV1.21B27,2013-08-06 02:27:00,
2013-08-06 03:32:00,55.6,53.6,29.87,WSW,250,2.0,5.0,93,0.00,,,0.00,WeatherCatV1.21B27,2013-08-06 02:32:00,
2013-08-06 03:37:00,55.6,53.6,29.87,WSW,248,3.0,4.0,93,0.00,,,0.00,WeatherCatV1.21B27,2013-08-06 02:37:00,
2013-08-06 03:42:00,55.6,53.6,29.87,SW,226,2.0,5.0,93,0.00,,,0.00,WeatherCatV1.21B27,2013-08-06 02:42:00,
2013-08-06 03:47:00,55.6,53.6,29.88,WSW,255,3.0,7.0,93,0.00,,,0.00,WeatherCatV1.21B27,2013-08-06 02:47:00,
2013-08-06 03:52:00,55.6,53.9,29.88,SW,224,3.0,5.0,94,0.00,,,0.00,WeatherCatV1.21B27,2013-08-06 02:52:00,
2013-08-06 03:57:00,55.5,53.8,29.88,SW,232,3.0,4.0,94,0.00,,,0.00,WeatherCatV1.21B27,2013-08-06 02:57:00,
2013-08-06 04:02:00,55.4,53.7,29.88,SW,226,2.0,4.0,94,0.00,,,0.00,WeatherCatV1.21B27,2013-08-06 03:02:00,
2013-08-06 04:07:00,55.4,53.7,29.88,SW,236,2.0,2.0,94,0.00,,,0.00,WeatherCatV1.21B27,2013-08-06 03:07:00,
2013-08-06 04:12:00,55.4,53.7,29.88,West,262,2.0,3.0,94,0.00,,,0.00,WeatherCatV1.21B27,2013-08-06 03:12:00,
2013-08-06 04:17:00,55.5,53.8,29.88,WNW,283,4.0,5.0,94,0.00,,,0.00,WeatherCatV1.21B27,2013-08-06 03:17:00,
2013-08-06 04:22:00,55.4,53.7,29.88,WNW,291,2.0,3.0,94,0.00,,,0.00,WeatherCatV1.21B27,2013-08-06 03:22:00,
2013-08-06 04:27:00,55.3,53.6,29.87,WNW,284,3.0,5.0,94,0.00,,,0.00,WeatherCatV1.21B27,2013-08-06 03:27:00,
2013-08-06 04:32:00,55.2,53.5,29.87,WNW,287,2.0,2.0,94,0.00,,,0.00,WeatherCatV1.21B27,2013-08-06 03:32:00,
2013-08-06 04:37:00,55.1,53.4,29.87,WNW,285,2.0,3.0,94,0.00,,,0.00,WeatherCatV1.21B27,2013-08-06 03:37:00,
2013-08-06 04:42:00,55.0,53.3,29.87,WNW,288,2.0,3.0,94,0.00,,,0.00,WeatherCatV1.21B27,2013-08-06 03:42:00,
2013-08-06 04:47:00,55.0,53.3,29.87,WNW,283,1.0,2.0,94,0.00,,,0.00,WeatherCatV1.21B27,2013-08-06 03:47:00,
2013-08-06 04:52:00,54.9,53.2,29.87,WNW,284,1.0,2.0,94,0.00,,,0.00,WeatherCatV1.21B27,2013-08-06 03:52:00,
2013-08-06 04:57:00,54.9,53.2,29.87,West,281,1.0,1.0,94,0.00,,,0.00,WeatherCatV1.21B27,2013-08-06 03:57:00,
2013-08-06 05:01:00,54.8,53.1,29.87,West,281,0.0,0.0,94,0.00,,,0.00,WeatherCatV1.21B27,2013-08-06 04:01:00,
2013-08-06 05:06:00,54.9,53.2,29.87,West,281,0.0,0.0,94,0.00,,,0.00,WeatherCatV1.21B27,2013-08-06 04:06:00,
2013-08-06 05:11:00,54.9,53.2,29.87,West,281,0.0,0.0,94,0.00,,,0.00,WeatherCatV1.21B27,2013-08-06 04:11:00,
2013-08-06 05:16:00,54.9,53.2,29.87,West,281,0.0,0.0,94,0.00,,,0.00,WeatherCatV1.21B27,2013-08-06 04:16:00,
2013-08-06 05:21:00,54.9,53.2,29.86,West,281,0.0,0.0,94,0.00,,,0.00,WeatherCatV1.21B27,2013-08-06 04:21:00,
2013-08-06 05:26:00,54.9,53.2,29.86,SSW,201,1.0,1.0,94,0.00,,,0.00,WeatherCatV1.21B27,2013-08-06 04:26:00,
2013-08-06 05:31:00,55.0,53.3,29.86,SSW,197,1.0,2.0,94,0.00,,,0.00,WeatherCatV1.21B27,2013-08-06 04:31:00,
2013-08-06 05:36:00,55.1,53.4,29.86,South,191,1.0,1.0,94,0.00,,,0.00,WeatherCatV1.21B27,2013-08-06 04:36:00,
2013-08-06 05:41:00,55.1,53.4,29.86,SSW,207,1.0,2.0,94,0.00,,,0.00,WeatherCatV1.21B27,2013-08-06 04:41:00,
2013-08-06 05:46:00,55.2,53.2,29.86,SSW,197,1.0,2.0,93,0.00,,,0.00,WeatherCatV1.21B27,2013-08-06 04:46:00,
2013-08-06 05:51:00,55.4,53.4,29.86,SSW,197,0.0,0.0,93,0.00,,,0.00,WeatherCatV1.21B27,2013-08-06 04:51:00,
2013-08-06 05:56:00,55.4,53.4,29.86,SSW,197,0.0,0.0,93,0.00,,,0.00,WeatherCatV1.21B27,2013-08-06 04:56:00,
2013-08-06 06:01:00,55.3,53.3,29.86,SSW,197,0.0,0.0,93,0.00,,,0.00,WeatherCatV1.21B27,2013-08-06 05:01:00,
2013-08-06 06:06:00,55.2,53.2,29.86,SSW,197,0.0,0.0,93,0.00,,,0.00,WeatherCatV1.21B27,2013-08-06 05:06:00,
2013-08-06 06:11:00,55.3,53.3,29.86,SSW,197,0.0,0.0,93,0.00,,,0.00,WeatherCatV1.21B27,2013-08-06 05:11:00,
2013-08-06 06:16:00,55.5,53.8,29.86,SSW,197,0.0,0.0,94,0.00,,,0.00,WeatherCatV1.21B27,2013-08-06 05:16:00,
2013-08-06 06:21:00,55.7,54.0,29.86,SSW,197,0.0,0.0,94,0.00,,,0.00,WeatherCatV1.21B27,2013-08-06 05:21:00,
2013-08-06 06:26:00,55.9,54.2,29.86,SSW,203,1.0,1.0,94,0.00,,,0.00,WeatherCatV1.21B27,2013-08-06 05:26:00,
2013-08-06 06:31:00,55.9,53.9,29.86,SSW,198,1.0,1.0,93,0.00,,,0.00,WeatherCatV1.21B27,2013-08-06 05:31:00,
2013-08-06 06:36:00,55.9,53.6,29.86,SSW,203,2.0,5.0,92,0.00,,,0.00,WeatherCatV1.21B27,2013-08-06 05:36:00,
2013-08-06 06:41:00,56.2,53.9,29.86,SW,222,1.0,2.0,92,0.00,,,0.00,WeatherCatV1.21B27,2013-08-06 05:41:00,
2013-08-06 06:46:00,56.3,53.7,29.86,SSW,193,0.0,2.0,91,0.00,,,0.00,WeatherCatV1.21B27,2013-08-06 05:46:00,
2013-08-06 06:51:00,56.3,53.7,29.86,SSW,207,0.0,1.0,91,0.00,,,0.00,WeatherCatV1.21B27,2013-08-06 05:51:00,
2013-08-06 06:56:00,56.3,53.7,29.86,SSW,207,0.0,1.0,91,0.00,,,0.00,WeatherCatV1.21B27,2013-08-06 05:56:00,
2013-08-06 07:01:00,56.3,53.7,29.86,SSW,207,0.0,1.0,91,0.00,,,0.00,WeatherCatV1.21B27,2013-08-06 06:01:00,
2013-08-06 07:06:00,56.3,53.7,29.86,SSW,207,0.0,0.0,91,0.00,,,0.00,WeatherCatV1.21B27,2013-08-06 06:06:00,
2013-08-06 07:11:00,56.3,53.7,29.86,SSW,207,1.0,1.0,91,0.00,,,0.00,WeatherCatV1.21B27,2013-08-06 06:11:00,
2013-08-06 07:16:00,56.3,53.7,29.86,SSW,207,0.0,0.0,91,0.00,,,0.00,WeatherCatV1.21B27,2013-08-06 06:16:00,
2013-08-06 07:21:00,56.2,53.3,29.86,SSW,207,0.0,0.0,90,0.00,,,0.00,WeatherCatV1.21B27,2013-08-06 06:21:00,
2013-08-06 07:26:00,56.2,53.3,29.86,SSW,207,0.0,0.0,90,0.00,,,0.00,WeatherCatV1.21B27,2013-08-06 06:26:00,
2013-08-06 07:31:00,56.3,53.4,29.86,SSE,163,0.0,0.0,90,0.00,,,0.00,WeatherCatV1.21B27,2013-08-06 06:31:00,
2013-08-06 07:41:00,56.7,53.5,29.86,SE,132,0.0,1.0,89,0.00,,,0.00,WeatherCatV1.21B27,2013-08-06 06:41:00,
2013-08-06 07:46:00,56.9,53.4,29.86,SE,128,1.0,2.0,88,0.00,,,0.00,WeatherCatV1.21B27,2013-08-06 06:46:00,
2013-08-06 07:51:00,57.3,53.5,29.86,SSE,150,2.0,3.0,87,0.00,,,0.00,WeatherCatV1.21B27,2013-08-06 06:51:00,
2013-08-06 07:56:00,57.5,53.7,29.86,SE,135,2.0,4.0,87,0.00,,,0.00,WeatherCatV1.21B27,2013-08-06 06:56:00,
2013-08-06 08:01:00,57.7,54.5,29.86,SE,146,3.0,6.0,89,0.00,,,0.00,WeatherCatV1.21B27,2013-08-06 07:01:00,
2013-08-06 08:06:00,57.9,54.7,29.86,SSE,159,6.0,7.0,89,0.00,,,0.00,WeatherCatV1.21B27,2013-08-06 07:06:00,
2013-08-06 08:11:00,57.9,54.7,29.86,SSE,158,4.0,6.0,89,0.00,,,0.00,WeatherCatV1.21B27,2013-08-06 07:11:00,
2013-08-06 08:16:00,58.1,54.9,29.86,South,181,3.0,6.0,89,0.00,,,0.00,WeatherCatV1.21B27,2013-08-06 07:16:00,
2013-08-06 08:21:00,58.2,54.7,29.86,South,190,5.0,8.0,88,0.00,,,0.00,WeatherCatV1.21B27,2013-08-06 07:21:00,
2013-08-06 08:26:00,58.3,54.8,29.85,SSE,159,4.0,9.0,88,0.00,,,0.00,WeatherCatV1.21B27,2013-08-06 07:26:00,
2013-08-06 08:31:00,58.3,54.8,29.85,South,187,5.0,8.0,88,0.00,,,0.00,WeatherCatV1.21B27,2013-08-06 07:31:00,
2013-08-06 08:36:00,58.3,54.8,29.85,SSE,166,6.0,7.0,88,0.00,,,0.00,WeatherCatV1.21B27,2013-08-06 07:36:00,
2013-08-06 08:41:00,58.3,54.8,29.85,SSE,166,6.0,9.0,88,0.00,,,0.00,WeatherCatV1.21B27,2013-08-06 07:41:00,
2013-08-06 08:46:00,58.4,54.9,29.85,SE,133,5.0,6.0,88,0.00,,,0.00,WeatherCatV1.21B27,2013-08-06 07:46:00,
2013-08-06 08:51:00,58.4,55.2,29.86,SSW,200,6.0,11.0,89,0.00,,,0.00,WeatherCatV1.21B27,2013-08-06 07:51:00,
2013-08-06 08:56:00,58.3,55.1,29.86,SSE,162,6.0,11.0,89,0.00,,,0.00,WeatherCatV1.21B27,2013-08-06 07:56:00,
2013-08-06 09:01:00,58.3,54.8,29.86,South,191,5.0,5.0,88,0.00,,,0.00,WeatherCatV1.21B27,2013-08-06 08:01:00,
2013-08-06 09:06:00,58.4,54.5,29.86,SSW,197,8.0,8.0,87,0.00,,,0.00,WeatherCatV1.21B27,2013-08-06 08:06:00,
2013-08-06 09:11:00,58.5,55.0,29.86,SSW,193,5.0,9.0,88,0.00,,,0.00,WeatherCatV1.21B27,2013-08-06 08:11:00,
2013-08-06 09:16:00,58.4,55.5,29.86,SSW,213,5.0,10.0,90,0.00,,,0.00,WeatherCatV1.21B27,2013-08-06 08:16:00,
2013-08-06 09:21:00,58.2,55.0,29.85,South,190,6.0,9.0,89,0.00,,,0.00,WeatherCatV1.21B27,2013-08-06 08:21:00,
2013-08-06 09:26:00,58.0,53.8,29.85,SSW,193,7.0,9.0,86,0.00,,,0.00,WeatherCatV1.21B27,2013-08-06 08:26:00,
2013-08-06 09:31:00,58.0,53.2,29.85,SSW,199,6.0,8.0,84,0.00,,,0.00,WeatherCatV1.21B27,2013-08-06 08:31:00,
2013-08-06 09:36:00,58.1,53.3,29.85,SSE,159,4.0,8.0,84,0.00,,,0.00,WeatherCatV1.21B27,2013-08-06 08:36:00,
2013-08-06 09:41:00,58.2,53.1,29.85,South,172,4.0,7.0,83,0.00,,,0.00,WeatherCatV1.21B27,2013-08-06 08:41:00,
2013-08-06 09:46:00,58.4,53.6,29.85,SE,128,3.0,6.0,84,0.00,,,0.00,WeatherCatV1.21B27,2013-08-06 08:46:00,
2013-08-06 09:51:00,58.4,53.6,29.85,South,172,5.0,7.0,84,0.00,,,0.00,WeatherCatV1.21B27,2013-08-06 08:51:00,
2013-08-06 09:56:00,58.2,53.7,29.85,SSE,153,4.0,5.0,85,0.00,,,0.00,WeatherCatV1.21B27,2013-08-06 08:56:00,
2013-08-06 10:01:00,58.2,54.0,29.85,SSE,163,5.0,7.0,86,0.00,,,0.00,WeatherCatV1.21B27,2013-08-06 09:01:00,
2013-08-06 10:06:00,58.6,54.4,29.86,South,187,5.0,6.0,86,0.00,,,0.00,WeatherCatV1.21B27,2013-08-06 09:06:00,
2013-08-06 10:11:00,59.2,54.7,29.85,SE,139,5.0,9.0,85,0.00,,,0.00,WeatherCatV1.21B27,2013-08-06 09:11:00,
2013-08-06 10:16:00,59.5,54.7,29.85,SSE,159,5.0,5.0,84,0.00,,,0.00,WeatherCatV1.21B27,2013-08-06 09:16:00,
2013-08-06 10:21:00,59.7,55.2,29.85,South,183,5.0,7.0,85,0.00,,,0.00,WeatherCatV1.21B27,2013-08-06 09:21:00,
2013-08-06 10:27:00,59.9,55.4,29.85,SSW,195,2.0,9.0,85,0.00,,,0.00,WeatherCatV1.21B27,2013-08-06 09:27:00,
2013-08-06 10:32:00,60.2,55.7,29.85,SSE,158,4.0,8.0,85,0.00,,,0.00,WeatherCatV1.21B27,2013-08-06 09:32:00,
2013-08-06 10:37:00,60.3,55.4,29.85,South,173,4.0,8.0,84,0.00,,,0.00,WeatherCatV1.21B27,2013-08-06 09:37:00,
2013-08-06 10:42:00,60.5,55.3,29.86,SE,128,7.0,10.0,83,0.00,,,0.00,WeatherCatV1.21B27,2013-08-06 09:42:00,
2013-08-06 10:47:00,60.4,55.5,29.86,South,175,6.0,9.0,84,0.00,,,0.00,WeatherCatV1.21B27,2013-08-06 09:47:00,
2013-08-06 10:50:00,60.2,55.3,29.86,SE,125,6.0,9.0,84,0.00,,,0.00,WeatherCatV1.21B27,2013-08-06 09:50:00,
2013-08-06 10:55:00,60.1,55.6,29.86,SSE,148,5.0,9.0,85,0.00,,,0.00,WeatherCatV1.21B27,2013-08-06 09:55:00,
2013-08-06 11:00:00,60.0,55.5,29.85,SSE,156,7.0,10.0,85,0.00,,,0.00,WeatherCatV1.21B27,2013-08-06 10:00:00,
2013-08-06 11:05:00,60.0,55.5,29.86,SSW,205,5.0,8.0,85,0.00,,,0.00,WeatherCatV1.21B27,2013-08-06 10:05:00,
2013-08-06 11:10:00,60.0,55.5,29.86,SE,139,5.0,11.0,85,0.00,,,0.00,WeatherCatV1.21B27,2013-08-06 10:10:00,
2013-08-06 11:15:00,60.3,55.8,29.85,SE,136,6.0,9.0,85,0.00,,,0.00,WeatherCatV1.21B27,2013-08-06 10:15:00,
2013-08-06 11:20:00,60.1,53.2,29.86,SSW,193,5.0,8.0,78,0.00,,,0.00,WeatherCatV1.21B27,2013-08-06 10:20:00,
2013-08-06 11:25:00,60.3,53.1,29.86,South,191,6.0,8.0,77,0.00,,,0.00,WeatherCatV1.21B27,2013-08-06 10:25:00,
2013-08-06 11:30:00,60.3,53.4,29.86,South,180,8.0,10.0,78,0.00,,,0.00,WeatherCatV1.21B27,2013-08-06 10:30:00,
2013-08-06 11:35:00,60.4,53.5,29.86,SW,214,12.0,12.0,78,0.00,,,0.00,WeatherCatV1.21B27,2013-08-06 10:35:00,
2013-08-06 11:40:00,60.7,53.8,29.85,SSW,198,7.0,11.0,78,0.00,,,0.00,WeatherCatV1.21B27,2013-08-06 10:40:00,
2013-08-06 11:45:00,60.7,53.8,29.85,South,172,7.0,7.0,78,0.00,,,0.00,WeatherCatV1.21B27,2013-08-06 10:45:00,
2013-08-06 11:50:00,60.9,52.2,29.85,South,176,5.0,8.0,73,0.00,,,0.00,WeatherCatV1.21B27,2013-08-06 10:50:00,
2013-08-06 11:55:00,61.0,51.5,29.85,SSE,165,6.0,8.0,71,0.00,,,0.00,WeatherCatV1.21B27,2013-08-06 10:55:00,
2013-08-06 12:00:00,61.3,51.8,29.85,SSW,198,6.0,8.0,71,0.00,,,0.00,WeatherCatV1.21B27,2013-08-06 11:00:00,
2013-08-06 12:05:00,61.8,53.8,29.84,SW,219,7.0,11.0,75,0.00,,,0.00,WeatherCatV1.21B27,2013-08-06 11:05:00,
2013-08-06 12:10:00,62.0,53.6,29.84,SSW,208,8.0,12.0,74,0.00,,,0.00,WeatherCatV1.21B27,2013-08-06 11:10:00,
2013-08-06 12:15:00,62.1,53.0,29.84,SW,217,10.0,12.0,72,0.00,,,0.00,WeatherCatV1.21B27,2013-08-06 11:15:00,
2013-08-06 12:20:00,62.8,54.0,29.84,SW,228,8.0,11.0,73,0.00,,,0.00,WeatherCatV1.21B27,2013-08-06 11:20:00,
2013-08-06 12:25:00,62.8,54.4,29.84,SW,219,9.0,12.0,74,0.00,,,0.00,WeatherCatV1.21B27,2013-08-06 11:25:00,
2013-08-06 12:30:00,62.8,52.9,29.84,SSW,212,7.0,11.0,70,0.00,,,0.00,WeatherCatV1.21B27,2013-08-06 11:30:00,
2013-08-06 12:35:00,62.6,53.8,29.84,South,190,6.0,10.0,73,0.00,,,0.00,WeatherCatV1.21B27,2013-08-06 11:35:00,
2013-08-06 12:40:00,62.7,54.3,29.84,SW,229,8.0,9.0,74,0.00,,,0.00,WeatherCatV1.21B27,2013-08-06 11:40:00,
2013-08-06 12:45:00,62.8,54.4,29.84,SSW,207,8.0,8.0,74,0.00,,,0.00,WeatherCatV1.21B27,2013-08-06 11:45:00,
2013-08-06 12:50:00,62.5,54.5,29.84,SSW,194,5.0,8.0,75,0.00,,,0.00,WeatherCatV1.21B27,2013-08-06 11:50:00,
2013-08-06 12:55:00,62.6,54.9,29.84,SSW,204,3.0,7.0,76,0.00,,,0.00,WeatherCatV1.21B27,2013-08-06 11:55:00,
2013-08-06 13:00:00,62.2,54.5,29.84,South,170,5.0,6.0,76,0.00,,,0.00,WeatherCatV1.21B27,2013-08-06 12:00:00,
2013-08-06 13:05:00,62.1,54.8,29.84,SSE,149,4.0,6.0,77,0.00,,,0.00,WeatherCatV1.21B27,2013-08-06 12:05:00,
2013-08-06 13:10:00,62.5,55.5,29.83,SSE,157,4.0,6.0,78,0.00,,,0.00,WeatherCatV1.21B27,2013-08-06 12:10:00,
2013-08-06 13:15:00,62.9,55.2,29.83,South,187,1.0,7.0,76,0.00,,,0.00,WeatherCatV1.21B27,2013-08-06 12:15:00,
2013-08-06 13:20:00,63.5,56.2,29.83,SSE,167,4.0,7.0,77,0.00,,,0.00,WeatherCatV1.21B27,2013-08-06 12:20:00,
2013-08-06 13:25:00,63.3,55.6,29.83,SSE,158,4.0,6.0,76,0.00,,,0.00,WeatherCatV1.21B27,2013-08-06 12:25:00,
2013-08-06 13:30:00,63.5,55.4,29.83,South,184,5.0,7.0,75,0.00,,,0.00,WeatherCatV1.21B27,2013-08-06 12:30:00,
2013-08-06 13:35:00,63.6,55.5,29.83,SSE,155,4.0,8.0,75,0.00,,,0.00,WeatherCatV1.21B27,2013-08-06 12:35:00,
2013-08-06 13:40:00,63.3,56.0,29.83,SW,219,3.0,7.0,77,0.00,,,0.00,WeatherCatV1.21B27,2013-08-06 12:40:00,
2013-08-06 13:45:00,63.0,55.7,29.83,SSW,201,3.0,5.0,77,0.00,,,0.00,WeatherCatV1.21B27,2013-08-06 12:45:00,
2013-08-06 13:50:00,62.9,55.6,29.83,South,179,5.0,5.0,77,0.00,,,0.00,WeatherCatV1.21B27,2013-08-06 12:50:00,
2013-08-06 13:55:00,62.9,55.6,29.83,SSE,153,4.0,5.0,77,0.00,,,0.00,WeatherCatV1.21B27,2013-08-06 12:55:00,
2013-08-06 14:00:00,62.9,55.9,29.82,SSW,204,5.0,5.0,78,0.00,,,0.00,WeatherCatV1.21B27,2013-08-06 13:00:00,
2013-08-06 14:05:00,62.6,55.6,29.82,SW,217,6.0,8.0,78,0.00,,,0.00,WeatherCatV1.21B27,2013-08-06 13:05:00,
2013-08-06 14:10:00,62.3,56.0,29.82,SSW,204,2.0,6.0,80,0.00,,,0.00,WeatherCatV1.21B27,2013-08-06 13:10:00,
2013-08-06 14:15:00,62.3,55.7,29.82,WSW,252,8.0,8.0,79,0.00,,,0.00,WeatherCatV1.21B27,2013-08-06 13:15:00,
2013-08-06 14:20:00,62.3,55.0,29.81,SSW,194,7.0,14.0,77,0.00,,,0.00,WeatherCatV1.21B27,2013-08-06 13:20:00,
2013-08-06 14:25:00,62.8,55.5,29.81,West,270,8.0,9.0,77,0.00,,,0.00,WeatherCatV1.21B27,2013-08-06 13:25:00,
2013-08-06 14:30:00,63.2,54.4,29.81,West,281,3.0,5.0,73,0.00,,,0.00,WeatherCatV1.21B27,2013-08-06 13:30:00,
2013-08-06 14:35:00,64.0,55.5,29.81,SSW,210,5.0,9.0,74,0.00,,,0.00,WeatherCatV1.21B27,2013-08-06 13:35:00,
2013-08-06 14:40:00,64.2,55.0,29.81,SSW,198,4.0,9.0,72,0.00,,,0.00,WeatherCatV1.21B27,2013-08-06 13:40:00,
2013-08-06 14:45:00,64.6,55.4,29.81,SSW,199,5.0,6.0,72,0.00,,,0.00,WeatherCatV1.21B27,2013-08-06 13:45:00,
2013-08-06 14:50:00,64.9,55.7,29.81,SSW,197,5.0,5.0,72,0.00,,,0.00,WeatherCatV1.21B27,2013-08-06 13:50:00,
2013-08-06 14:55:00,65.2,55.2,29.81,SW,225,6.0,6.0,70,0.00,,,0.00,WeatherCatV1.21B27,2013-08-06 13:55:00,
2013-08-06 15:00:00,65.2,54.8,29.81,SW,223,5.0,8.0,69,0.00,,,0.00,WeatherCatV1.21B27,2013-08-06 14:00:00,
2013-08-06 15:05:00,65.0,54.6,29.80,West,277,3.0,5.0,69,0.00,,,0.00,WeatherCatV1.21B27,2013-08-06 14:05:00,
2013-08-06 15:10:00,64.5,54.5,29.80,WSW,239,2.0,6.0,70,0.00,,,0.00,WeatherCatV1.21B27,2013-08-06 14:10:00,
2013-08-06 15:15:00,64.3,54.7,29.80,SW,226,5.0,8.0,71,0.00,,,0.00,WeatherCatV1.21B27,2013-08-06 14:15:00,
2013-08-06 15:20:00,64.5,56.0,29.80,SW,231,5.0,6.0,74,0.00,,,0.00,WeatherCatV1.21B27,2013-08-06 14:20:00,
2013-08-06 15:25:00,64.9,54.5,29.80,WSW,243,5.0,7.0,69,0.00,,,0.00,WeatherCatV1.21B27,2013-08-06 14:25:00,
2013-08-06 15:30:00,64.7,55.5,29.80,WSW,253,7.0,8.0,72,0.00,,,0.00,WeatherCatV1.21B27,2013-08-06 14:30:00,
2013-08-06 15:35:00,64.7,55.1,29.80,North,354,4.0,6.0,71,0.00,,,0.00,WeatherCatV1.21B27,2013-08-06 14:35:00,
2013-08-06 15:40:00,65.0,55.4,29.80,WSW,257,3.0,6.0,71,0.00,,,0.00,WeatherCatV1.21B27,2013-08-06 14:40:00,
2013-08-06 15:45:00,64.8,54.8,29.80,WSW,240,4.0,9.0,70,0.00,,,0.00,WeatherCatV1.21B27,2013-08-06 14:45:00,
2013-08-06 15:50:00,64.4,54.0,29.80,SW,216,6.0,8.0,69,0.00,,,0.00,WeatherCatV1.21B27,2013-08-06 14:50:00,
2013-08-06 15:55:00,64.2,53.4,29.80,SSW,201,6.0,9.0,68,0.00,,,0.00,WeatherCatV1.21B27,2013-08-06 14:55:00,
2013-08-06 16:00:00,64.3,53.9,29.80,SW,214,5.0,7.0,69,0.00,,,0.00,WeatherCatV1.21B27,2013-08-06 15:00:00,
2013-08-06 16:05:00,64.4,53.2,29.80,West,267,6.0,8.0,67,0.00,,,0.00,WeatherCatV1.21B27,2013-08-06 15:05:00,
2013-08-06 16:10:00,64.2,53.8,29.79,SW,231,4.0,8.0,69,0.00,,,0.00,WeatherCatV1.21B27,2013-08-06 15:10:00,
2013-08-06 16:15:00,64.2,53.8,29.80,WSW,240,6.0,9.0,69,0.00,,,0.00,WeatherCatV1.21B27,2013-08-06 15:15:00,
2013-08-06 16:20:00,64.4,53.6,29.80,SW,219,5.0,8.0,68,0.00,,,0.00,WeatherCatV1.21B27,2013-08-06 15:20:00,
2013-08-06 16:25:00,64.3,53.9,29.79,SW,217,9.0,11.0,69,0.00,,,0.00,WeatherCatV1.21B27,2013-08-06 15:25:00,
2013-08-06 16:30:00,64.3,53.9,29.79,SSW,201,6.0,10.0,69,0.00,,,0.00,WeatherCatV1.21B27,2013-08-06 15:30:00,
2013-08-06 16:35:00,64.9,54.1,29.79,WNW,283,8.0,11.0,68,0.00,,,0.00,WeatherCatV1.21B27,2013-08-06 15:35:00,
2013-08-06 16:40:00,64.9,52.4,29.79,West,262,6.0,11.0,64,0.00,,,0.00,WeatherCatV1.21B27,2013-08-06 15:40:00,
2013-08-06 16:45:00,65.1,53.5,29.79,SW,219,3.0,7.0,66,0.00,,,0.00,WeatherCatV1.21B27,2013-08-06 15:45:00,
2013-08-06 16:50:00,65.7,53.6,29.79,West,268,6.0,6.0,65,0.00,,,0.00,WeatherCatV1.21B27,2013-08-06 15:50:00,
2013-08-06 16:55:00,65.8,52.8,29.79,SW,232,7.0,8.0,63,0.00,,,0.00,WeatherCatV1.21B27,2013-08-06 15:55:00,
2013-08-06 17:00:00,65.6,53.5,29.78,SW,229,6.0,9.0,65,0.00,,,0.00,WeatherCatV1.21B27,2013-08-06 16:00:00,
2013-08-06 17:05:00,65.6,53.9,29.78,SSW,203,6.0,7.0,66,0.00,,,0.00,WeatherCatV1.21B27,2013-08-06 16:05:00,
2013-08-06 17:11:00,65.1,53.5,29.78,SW,225,5.0,6.0,66,0.00,,,0.00,WeatherCatV1.21B27,2013-08-06 16:11:00,
2013-08-06 17:16:00,64.8,54.0,29.78,SW,217,2.0,6.0,68,0.00,,,0.00,WeatherCatV1.21B27,2013-08-06 16:16:00,
2013-08-06 17:21:00,64.3,54.7,29.78,SW,223,2.0,4.0,71,0.00,,,0.00,WeatherCatV1.21B27,2013-08-06 16:21:00,
2013-08-06 17:26:00,63.8,54.6,29.79,SSE,156,5.0,8.0,72,0.00,,,0.00,WeatherCatV1.21B27,2013-08-06 16:26:00,
2013-08-06 17:31:00,63.2,55.1,29.79,SSE,152,3.0,7.0,75,0.57,,,0.03,WeatherCatV1.21B27,2013-08-06 16:31:00,
2013-08-06 17:36:00,62.3,55.0,29.79,West,267,2.0,6.0,77,0.09,,,0.04,WeatherCatV1.21B27,2013-08-06 16:36:00,
2013-08-06 17:41:00,62.1,55.8,29.79,West,278,2.0,3.0,80,0.05,,,0.04,WeatherCatV1.21B27,2013-08-06 16:41:00,
2013-08-06 17:46:00,61.9,56.0,29.78,WNW,297,2.0,2.0,81,0.03,,,0.04,WeatherCatV1.21B27,2013-08-06 16:46:00,
2013-08-06 17:51:00,62.0,56.1,29.78,WNW,285,1.0,1.0,81,0.00,,,0.04,WeatherCatV1.21B27,2013-08-06 16:51:00,
2013-08-06 17:56:00,62.3,56.4,29.78,West,270,0.0,1.0,81,0.00,,,0.04,WeatherCatV1.21B27,2013-08-06 16:56:00,
2013-08-06 18:01:00,62.2,55.6,29.78,NW,325,0.0,3.0,79,0.00,,,0.04,WeatherCatV1.21B27,2013-08-06 17:01:00,
2013-08-06 18:06:00,62.2,56.0,29.78,NW,323,1.0,1.0,80,0.00,,,0.04,WeatherCatV1.21B27,2013-08-06 17:06:00,
2013-08-06 18:11:00,62.2,56.0,29.78,NW,323,0.0,0.0,80,0.00,,,0.04,WeatherCatV1.21B27,2013-08-06 17:11:00,
2013-08-06 18:16:00,62.4,56.5,29.78,North,9,1.0,1.0,81,0.00,,,0.04,WeatherCatV1.21B27,2013-08-06 17:16:00,
2013-08-06 18:21:00,62.5,56.2,29.78,SE,126,1.0,2.0,80,0.00,,,0.04,WeatherCatV1.21B27,2013-08-06 17:21:00,
2013-08-06 18:26:00,62.5,56.2,29.78,SE,131,3.0,3.0,80,0.00,,,0.04,WeatherCatV1.21B27,2013-08-06 17:26:00,
2013-08-06 18:31:00,62.3,56.7,29.78,ESE,121,2.0,4.0,82,0.00,,,0.04,WeatherCatV1.21B27,2013-08-06 17:31:00,
2013-08-06 18:36:00,61.8,55.6,29.78,SW,219,4.0,6.0,80,0.00,,,0.04,WeatherCatV1.21B27,2013-08-06 17:36:00,
2013-08-06 18:41:00,61.3,55.4,29.78,SSW,193,5.0,5.0,81,0.00,,,0.05,WeatherCatV1.21B27,2013-08-06 17:41:00,
2013-08-06 18:46:00,60.8,55.6,29.78,SSW,208,2.0,3.0,83,0.00,,,0.05,WeatherCatV1.21B27,2013-08-06 17:46:00,
2013-08-06 18:51:00,60.3,55.8,29.78,SSW,192,2.0,3.0,85,0.00,,,0.05,WeatherCatV1.21B27,2013-08-06 17:51:00,
2013-08-06 18:56:00,60.1,55.9,29.78,South,176,3.0,3.0,86,0.00,,,0.05,WeatherCatV1.21B27,2013-08-06 17:56:00,
2013-08-06 19:01:00,59.9,56.0,29.78,SSE,167,2.0,4.0,87,0.14,,,0.06,WeatherCatV1.21B27,2013-08-06 18:01:00,
2013-08-06 19:06:00,59.7,56.1,29.78,South,184,1.0,2.0,88,0.08,,,0.06,WeatherCatV1.21B27,2013-08-06 18:06:00,
2013-08-06 19:11:00,59.6,56.3,29.78,South,181,2.0,3.0,89,0.07,,,0.07,WeatherCatV1.21B27,2013-08-06 18:11:00,
2013-08-06 19:16:00,59.5,56.6,29.78,South,187,0.0,2.0,90,0.05,,,0.07,WeatherCatV1.21B27,2013-08-06 18:16:00,
2013-08-06 19:21:00,59.5,56.6,29.78,SSW,205,1.0,3.0,90,0.03,,,0.07,WeatherCatV1.21B27,2013-08-06 18:21:00,
2013-08-06 19:26:00,59.5,56.9,29.78,South,190,4.0,4.0,91,0.00,,,0.07,WeatherCatV1.21B27,2013-08-06 18:26:00,
2013-08-06 19:31:00,59.4,56.8,29.78,WSW,239,2.0,2.0,91,0.00,,,0.07,WeatherCatV1.21B27,2013-08-06 18:31:00,
2013-08-06 19:36:00,59.2,56.6,29.78,West,281,1.0,2.0,91,0.00,,,0.07,WeatherCatV1.21B27,2013-08-06 18:36:00,
2013-08-06 19:41:00,58.9,56.0,29.78,North,354,0.0,1.0,90,0.00,,,0.07,WeatherCatV1.21B27,2013-08-06 18:41:00,
2013-08-06 19:46:00,59.2,56.9,29.78,NNE,17,0.0,2.0,92,0.00,,,0.07,WeatherCatV1.21B27,2013-08-06 18:46:00,
2013-08-06 19:51:00,59.3,57.0,29.78,ESE,118,0.0,1.0,92,0.00,,,0.08,WeatherCatV1.21B27,2013-08-06 18:51:00,
2013-08-06 19:56:00,59.1,56.8,29.78,NE,40,0.0,0.0,92,0.09,,,0.09,WeatherCatV1.21B27,2013-08-06 18:56:00,
2013-08-06 20:01:00,59.0,56.7,29.78,NNW,338,1.0,1.0,92,0.08,,,0.09,WeatherCatV1.21B27,2013-08-06 19:01:00,
2013-08-06 20:06:00,58.8,56.5,29.78,NNW,335,0.0,1.0,92,0.04,,,0.09,WeatherCatV1.21B27,2013-08-06 19:06:00,
2013-08-06 20:11:00,58.8,56.8,29.78,NNW,333,0.0,1.0,93,0.03,,,0.09,WeatherCatV1.21B27,2013-08-06 19:11:00,
2013-08-06 20:16:00,58.9,56.9,29.78,ESE,115,0.0,0.0,93,0.00,,,0.09,WeatherCatV1.21B27,2013-08-06 19:16:00,
2013-08-06 20:21:00,59.0,57.0,29.78,NNE,29,2.0,2.0,93,0.00,,,0.09,WeatherCatV1.21B27,2013-08-06 19:21:00,
2013-08-06 20:26:00,59.0,57.0,29.78,NE,40,2.0,3.0,93,0.00,,,0.09,WeatherCatV1.21B27,2013-08-06 19:26:00,
2013-08-06 20:31:00,59.0,57.0,29.78,NW,321,1.0,2.0,93,0.00,,,0.09,WeatherCatV1.21B27,2013-08-06 19:31:00,
2013-08-06 20:36:00,58.8,56.8,29.78,North,9,1.0,2.0,93,0.00,,,0.09,WeatherCatV1.21B27,2013-08-06 19:36:00,
2013-08-06 20:41:00,58.8,57.1,29.78,NW,325,2.0,2.0,94,0.00,,,0.09,WeatherCatV1.21B27,2013-08-06 19:41:00,
2013-08-06 20:46:00,58.8,56.8,29.78,NW,318,1.0,2.0,93,0.00,,,0.09,WeatherCatV1.21B27,2013-08-06 19:46:00,
2013-08-06 20:51:00,58.6,56.6,29.78,North,0,2.0,2.0,93,0.00,,,0.09,WeatherCatV1.21B27,2013-08-06 19:51:00,
2013-08-06 20:56:00,58.6,56.6,29.78,NNE,27,4.0,4.0,93,0.00,,,0.09,WeatherCatV1.21B27,2013-08-06 19:56:00,
2013-08-06 21:01:00,58.5,56.8,29.78,NNW,333,2.0,4.0,94,0.00,,,0.09,WeatherCatV1.21B27,2013-08-06 20:01:00,
2013-08-06 21:06:00,58.4,56.7,29.78,North,6,1.0,3.0,94,0.00,,,0.09,WeatherCatV1.21B27,2013-08-06 20:06:00,
2013-08-06 21:11:00,58.3,56.3,29.78,NNE,13,2.0,2.0,93,0.00,,,0.09,WeatherCatV1.21B27,2013-08-06 20:11:00,
2013-08-06 21:16:00,58.2,56.2,29.78,North,9,4.0,4.0,93,0.00,,,0.09,WeatherCatV1.21B27,2013-08-06 20:16:00,
2013-08-06 21:21:00,58.2,56.5,29.78,North,6,0.0,1.0,94,0.00,,,0.09,WeatherCatV1.21B27,2013-08-06 20:21:00,
2013-08-06 21:26:00,58.1,56.4,29.78,NE,47,1.0,3.0,94,0.00,,,0.09,WeatherCatV1.21B27,2013-08-06 20:26:00,
2013-08-06 21:31:00,58.0,56.3,29.78,North,6,0.0,1.0,94,0.00,,,0.09,WeatherCatV1.21B27,2013-08-06 20:31:00,
2013-08-06 21:36:00,58.0,56.3,29.79,North,356,1.0,1.0,94,0.00,,,0.09,WeatherCatV1.21B27,2013-08-06 20:36:00,
2013-08-06 21:41:00,57.9,56.2,29.79,NNE,25,0.0,2.0,94,0.00,,,0.09,WeatherCatV1.21B27,2013-08-06 20:41:00,
2013-08-06 21:46:00,57.9,56.2,29.79,NNW,342,0.0,3.0,94,0.00,,,0.09,WeatherCatV1.21B27,2013-08-06 20:46:00,
2013-08-06 21:51:00,57.9,56.2,29.79,North,352,1.0,1.0,94,0.00,,,0.09,WeatherCatV1.21B27,2013-08-06 20:51:00,
2013-08-06 21:56:00,57.9,56.2,29.79,NNE,18,0.0,2.0,94,0.00,,,0.09,WeatherCatV1.21B27,2013-08-06 20:56:00,
2013-08-06 22:01:00,57.8,56.4,29.79,NNE,18,0.0,1.0,95,0.00,,,0.09,WeatherCatV1.21B27,2013-08-06 21:01:00,
2013-08-06 22:06:00,57.8,56.4,29.79,North,356,1.0,2.0,95,0.00,,,0.09,WeatherCatV1.21B27,2013-08-06 21:06:00,
2013-08-06 22:11:00,57.8,56.4,29.79,NE,44,0.0,2.0,95,0.00,,,0.09,WeatherCatV1.21B27,2013-08-06 21:11:00,
2013-08-06 22:16:00,57.8,56.4,29.79,NNE,27,1.0,2.0,95,0.00,,,0.09,WeatherCatV1.21B27,2013-08-06 21:16:00,
2013-08-06 22:21:00,57.7,56.3,29.79,NNE,27,0.0,1.0,95,0.00,,,0.09,WeatherCatV1.21B27,2013-08-06 21:21:00,
2013-08-06 22:26:00,57.7,56.3,29.80,NNE,26,0.0,1.0,95,0.00,,,0.09,WeatherCatV1.21B27,2013-08-06 21:26:00,
2013-08-06 22:31:00,57.6,56.2,29.80,North,356,0.0,1.0,95,0.00,,,0.09,WeatherCatV1.21B27,2013-08-06 21:31:00,
2013-08-06 22:36:00,57.6,56.2,29.80,North,352,0.0,2.0,95,0.00,,,0.09,WeatherCatV1.21B27,2013-08-06 21:36:00,
2013-08-06 22:41:00,57.5,56.1,29.80,North,350,0.0,1.0,95,0.00,,,0.09,WeatherCatV1.21B27,2013-08-06 21:41:00,
2013-08-06 22:46:00,57.4,56.0,29.80,North,349,0.0,1.0,95,0.00,,,0.09,WeatherCatV1.21B27,2013-08-06 21:46:00,
2013-08-06 22:51:00,57.4,56.0,29.80,NNW,347,0.0,0.0,95,0.00,,,0.09,WeatherCatV1.21B27,2013-08-06 21:51:00,
2013-08-06 22:56:00,57.3,55.9,29.80,NNW,347,0.0,0.0,95,0.00,,,0.09,WeatherCatV1.21B27,2013-08-06 21:56:00,
2013-08-06 23:01:00,57.2,55.8,29.80,NNW,347,0.0,0.0,95,0.00,,,0.09,WeatherCatV1.21B27,2013-08-06 22:01:00,
2013-08-06 23:06:00,57.2,55.8,29.80,NNW,347,0.0,0.0,95,0.00,,,0.09,WeatherCatV1.21B27,2013-08-06 22:06:00,
2013-08-06 23:11:00,57.2,56.1,29.80,East,86,0.0,1.0,96,0.00,,,0.09,WeatherCatV1.21B27,2013-08-06 22:11:00,
2013-08-06 23:16:00,57.2,56.1,29.80,East,86,0.0,1.0,96,0.00,,,0.09,WeatherCatV1.21B27,2013-08-06 22:16:00,
2013-08-06 23:21:00,57.3,56.2,29.80,SE,136,1.0,1.0,96,0.00,,,0.09,WeatherCatV1.21B27,2013-08-06 22:21:00,
2013-08-06 23:26:00,57.4,56.0,29.80,ESE,111,1.0,1.0,95,0.00,,,0.09,WeatherCatV1.21B27,2013-08-06 22:26:00,
2013-08-06 23:31:00,57.4,56.0,29.80,ESE,111,2.0,2.0,95,0.00,,,0.09,WeatherCatV1.21B27,2013-08-06 22:31:00,
2013-08-06 23:36:00,57.4,56.0,29.80,SE,124,0.0,1.0,95,0.00,,,0.09,WeatherCatV1.21B27,2013-08-06 22:36:00,
2013-08-06 23:41:00,57.5,56.1,29.80,ESE,113,1.0,1.0,95,0.00,,,0.09,WeatherCatV1.21B27,2013-08-06 22:41:00,
2013-08-06 23:46:00,57.5,56.1,29.80,ESE,117,1.0,2.0,95,0.00,,,0.09,WeatherCatV1.21B27,2013-08-06 22:46:00,
2013-08-06 23:51:00,57.6,56.2,29.80,East,98,2.0,2.0,95,0.00,,,0.09,WeatherCatV1.21B27,2013-08-06 22:51:00,
2013-08-06 23:56:00,57.6,55.9,29.80,SE,127,0.0,2.0,94,0.00,,,0.09,WeatherCatV1.21B27,2013-08-06 22:56:00,